Terminal Aerodrome Forecast
Issued by NWS Riverton, WY

Home | Current Version | Previous Version | Text Only | Print | Product List | Glossary On
Versions: 1 2 3 4 5 6 7 8 9 10 11 12
000
FTUS45 KRIW 100500
TAFRIW
TAF
KRIW 100538Z 1006/1106 36010KT P6SM SCT120 BKN200
     FM101500 36011KT P6SM VCSH BKN110
     FM110500 VRB06KT P6SM SCT110 BKN200=

USA.gov is the U.S. government's official web portal to all federal, state and local government web resources and services.